Regional Weather Roundup
Issued by NWS Midland/Odessa, TX

Skip options and go directly to product.
Home | Oldest Version | Previous Version | Current Version | All | Text Only | Save Text | Print | Product List | Glossary Off

Skip product version selection by date and time.   

475
ASUS44 KMAF 301810
RWRMAF
MIDLAND AREA WEATHER ROUNDUP
NATIONAL WEATHER SERVICE MIDLAND TX
100 PM CDT THU OCT 30 2014

...IN SOUTHWEST TEXAS AND SOUTHEAST NEW MEXICO...

CITY           SKY/WX    TMP DP  RH WIND       PRES   REMARKS
ALPINE         SUNNY     79  38  22 NE3       30.29S
ANDREWS        FAIR      76  41  28 NW8       30.16F
ARTESIA        NOT AVBL
BIG SPRING     SUNNY     79  60  52 SW6       30.16F
CARLSBAD         N/A     72  37  28 MISG      30.21S
DRYDEN           N/A     75  61  61 VRB3      30.12F
FORT STOCKTON  SUNNY     81  54  39 N7        30.16F
GUAD PASS      SUNNY     69  47  45 VRB7      30.32S
HOBBS          SUNNY     72  37  28 N15       30.21S
MARFA          SUNNY     75  48  38 S5        30.28F
MIDLAND AIRPK  SUNNY     79  55  44 W9        30.15F
MIDLAND INTL   SUNNY     79  56  45 W8        30.14F
ODESSA         SUNNY     79  53  40 NW8       30.15F
PECOS          SUNNY     74  52  47 W8        30.17S
PRESIDIO       FAIR      78  56  47 CALM      30.17F
SEMINOLE       SUNNY     73  37  27 N8        30.19S
SNYDER         MOSUNNY   70  61  74 CALM      30.16S
WINK           SUNNY     79  49  34 NW7       30.14F
$$
...OTHER STATIONS IN TEXAS...

CITY           SKY/WX    TMP DP  RH WIND       PRES   REMARKS
ABILENE        SUNNY     78  60  53 S9        30.13F
AMARILLO       SUNNY     69  30  23 NE18G26   30.27R
AUSTIN         MOSUNNY   75  58  55 CALM      30.13F
BROWNSVILLE    PTSUNNY   86  66  51 MISG      30.07F
CORPUS CHRISTI PTSUNNY   82  69  64 NE8       30.08F
DALLAS FTW     MOSUNNY   74  47  38 S8        30.13F
DEL RIO        SUNNY     80  65  59 SE9       30.09F
EL PASO        SUNNY     73  40  30 N9        30.23F
HOUSTON INT    MOSUNNY   74  51  44 E3        30.13F
LUBBOCK        SUNNY     71  49  45 NE16G25   30.18S
SAN ANGELO     SUNNY     79  61  53 SW6       30.12F
SAN ANTONIO    MOSUNNY   79  62  56 VRB5      30.12F
WACO           PTSUNNY   70  48  45 S8        30.15F
WICHITA FALLS  NOT AVBL
$$
...OTHER LOCATIONS IN NEW MEXICO...

CITY           SKY/WX    TMP DP  RH WIND       PRES   REMARKS
ALAMAGORDO     NOT AVBL
ALBUQUERQUE    SUNNY     62  16  16 N12       30.35S
CANNON AFB     SUNNY     70  28  20 NE22G32   30.27S
CLOVIS         SUNNY     70  28  21 NE25      30.31R
HOLLOMAN AFB   MOSUNNY   71  36  27 VRB5      30.23F
ROSWELL        SUNNY     71  36  27 N16       30.26S
RUIDOSO        SUNNY     63  23  22 SE14      30.41R
SANTA FE       SUNNY     62  12  14 CALM      30.38F
TRUTH OR CONSE SUNNY     69  23  17 N7        30.29F
TUCUMCARI      SUNNY     71  23  16 NE20G26   30.30R
$$

USA.gov is the U.S. government's official web portal to all federal, state and local government web resources and services.